Simultaneous Nadir Overpasses (SNOs) Predictions

Prediction of SNOs between FY3D and NOAA-19 Satellite Orbit:

Table of predicted SNOs for the next 14.0 days since TLE Epoch: 3/5/2022
Index Date (FY3D) Time (FY3D) Lat,Lon (FY3D) SZA (FY3D ) Date (NOAA-19) Time (NOAA-19) Lat,Lon (NOAA-19) SZA (NOAA-19 ) Distance(km) Time Diff (sec)
1 03/18/2022 12:37:59 -77.34, 153.73 101.21 03/18/2022 12:36:54 -77.34, 150.01 100.89 90.72 65
2 03/18/2022 13:28:55 77.73, -40.77 79.27 03/18/2022 13:27:42 77.73, -40.74 79.30 0.83 73
3 03/18/2022 14:19:40 -77.74, 126.48 100.73 03/18/2022 14:18:44 -77.74, 126.55 100.71 1.65 56
4 03/18/2022 15:10:27 77.75, -66.26 79.28 03/18/2022 15:09:42 77.73, -66.23 79.27 1.93 45
5 03/18/2022 16:01:12 -77.76, 100.99 100.73 03/18/2022 16:00:44 -77.74, 101.07 100.74 2.88 28
6 03/18/2022 16:51:58 77.73, -91.55 79.22 03/18/2022 16:51:42 77.74, -91.72 79.25 3.96 16
7 03/18/2022 17:42:43 -77.74, 75.70 100.78 03/18/2022 17:42:44 -77.75, 75.58 100.77 2.76 1
8 03/18/2022 18:33:30 77.75,-117.04 79.22 03/18/2022 18:33:41 77.78,-116.99 79.24 2.78 11
9 03/18/2022 19:24:15 -77.77, 50.21 100.78 03/18/2022 19:24:43 -77.79, 50.31 100.78 3.24 28
10 03/18/2022 20:15:02 77.78,-142.53 79.23 03/18/2022 20:15:41 77.78,-142.48 79.21 1.32 39
11 03/18/2022 21:05:47 -77.79, 24.72 100.78 03/18/2022 21:06:43 -77.79, 24.82 100.80 2.57 56
12 03/18/2022 21:56:34 77.80,-168.03 79.23 03/18/2022 21:57:41 77.78,-167.97 79.18 2.53 67



Historial Predications of SNOs between FY3D and NOAA-19
